This demonstration page uses our WeatherBlox Daily Observations layout. Learn more.

Left ArrowRight Arrow

39.08367, -84.50855

Hourly Observations for March 8, 2016

Temp ( °F °C ) Dew Point ( °F °C ) Humidity (%) Winds ( mph kmh ) Pressure ( in mb ) Visibility ( mi km ) Precip ( " mm )
12:53 am 00:53 Clear 47 8.3 39 3.9 74 74 N N/A 30.07 1018 10 16.0934 N/A
1:53 am 01:53 Clear 45 7.2 39 3.9 80 80 NNE 3 6 30.09 1019 10 16.0934 N/A
2:53 am 02:53 Clear 42 5.6 38 3.3 85 85 N N/A 30.09 1019 10 16.0934 N/A
3:53 am 03:53 Clear 42 5.6 39 3.9 89 89 N N/A 30.09 1019 10 16.0934 N/A
4:53 am 04:53 Clear 44 6.7 39 3.9 83 83 N N/A 30.1 1019 10 16.0934 N/A
5:53 am 05:53 Clear 42 5.6 39 3.9 89 89 N N/A 30.13 1020 10 16.0934 N/A
6:53 am 06:53 Clear 44 6.7 41 5 89 89 SSW 3 6 30.15 1021 10 16.0934 N/A
7:53 am 07:53 Sunny 45 7.2 42 5.6 90 90 N N/A 30.17 1022 10 16.0934 N/A
8:53 am 08:53 Sunny 58 14.4 45 7.2 62 62 SSW 7 11 30.18 1022 10 16.0934 N/A
9:53 am 09:53 Sunny 64 17.8 46 7.8 52 52 SSW 14 22 30.17 1022 10 16.0934 N/A
10:53 am 10:53 Sunny 68 20 47 8.3 47 47 SSW 20 31 30.16 1021 10 16.0934 N/A
11:53 am 11:53 Sunny 69 20.6 48 8.9 47 47 SW 17 28 30.14 1021 10 16.0934 N/A
12:53 pm 12:53 Sunny 70 21.1 49 9.4 47 47 SSW 20 31 30.11 1020 10 16.0934 N/A
1:53 pm 13:53 Sunny 73 22.8 47 8.3 40 40 SSW 15 24 30.07 1018 10 16.0934 N/A
2:53 pm 14:53 Sunny 74 23.3 44 6.7 34 34 S 18 30 30.06 1018 10 16.0934 N/A
3:53 pm 15:53 Sunny 74 23.3 44 6.7 34 34 S 17 28 30.03 1017 10 16.0934 N/A
4:53 pm 16:53 Sunny 71 21.7 43 6.1 36 36 SSW 16 26 30.03 1017 10 16.0934 N/A
5:53 pm 17:53 Sunny 71 21.7 41 5 34 34 SSW 17 28 30.02 1017 10 16.0934 N/A
6:53 pm 18:53 Clear 65 18.3 39 3.9 39 39 S 12 19 30.03 1017 10 16.0934 N/A
7:53 pm 19:53 Clear 61 16.1 40 4.4 46 46 S 8 13 30.03 1017 10 16.0934 N/A
8:53 pm 20:53 Clear 62 16.7 40 4.4 44 44 SW 5 7 30.04 1017 10 16.0934 N/A
9:53 pm 21:53 Clear 54 12.2 41 5 62 62 N N/A 30.04 1017 10 16.0934 N/A
10:53 pm 22:53 Clear 50 10 42 5.6 74 74 S 3 6 30.05 1018 10 16.0934 N/A
11:53 pm 23:53 Clear 49 9.4 42 5.6 77 77 S 5 7 30.05 1018 10 16.0934 N/A

Powered by AerisWeather